Погода в Охматове

Украина / Черкасская область     49°10′45″N   30°14′07″E
темп.,
°C
ветер,
м/с
пор.,
м/с
влажн.,
%
обл.,
%
осадки,
мм/ч
давл.,
гПа
погр.,
м
19 января, ср
ср1923:00−5ссз91575100 0.0 10231048
02:00−5ссз8147885 0.0 1025788
05:00−7ссз7148447 0.0 1026587
08:00−7сз51285100 0.0 1027455
11:00−4сз5970100 0.0 1026478
14:00−2сз4765100 0.0 1024549
17:00−3зюз259344 0.0 1023106
20:00−5зюз37955 0.0 1022152
20 января, чт
чт2023:00−5зюз38965 0.0 1021165
02:00−4юз3794100 0.0 1019164
05:00−4юз4995100 0.0 1016226
08:00−4ююз41285100 0.0 1014283
11:00−1ююз51265100 0.0 1013444
14:00+1ююз586244 0.0 1010371
17:00−2юз3879100 0.0 1009166
20:00−2зюз51097100 0.4 1008437
21 января, пт
пт2123:00−2зюз4995100 0.4 1007302
02:00−2зсз8138099 0.5 1007746
05:00−4з713808 0.0 1008724
08:00−4з81579100 0.0 1009950
11:00−3з91473100 0.0 10091080
14:00−3з91573100 0.0 10091129
17:00−3з81580100 0.0 1009965
20:00−3з8148099 0.1 1009926
22 января, сб
сб2223:00−4зюз81380100 0.0 1010828
02:00−5зюз81490100 0.1 1009825
05:00−4з7139099 0.4 1008820
08:00−4з61285100 0.4 1009722
11:00−3з7980100 0.1 1010860
14:00−3з6875100 0.3 10101032
17:00−4з488178 0.1 1012331
20:00−5юз379484 0.2 1013219
23 января, вс
вс2323:00−5зсз369587 0.1 1015227
02:00−6сз359790 0.2 1017177
05:00−6ссз369472 0.1 1018288
08:00−7с379686 0.2 1020239
11:00−5ссв4684100 0.1 1022518
14:00−4ссв5677100 0.2 1023824
17:00−5ссв4792100 0.2 1025553
20:00−6ссв4893100 0.4 1028533